Rapid City, SD

1:56 AM MST on February 21, 2017 (GMT -0700)
Rapid City Regional

Weather History for KRAP - January, 2014

Change the Weather History Date:

Saturday, January 11, 2014

  Actual Average Record
Temperature  
Mean Temperature 39 °F 25 °F  
Max Temperature 54 °F 37 °F 68 °F (1987)
Min Temperature 24 °F 13 °F -21 °F (1982)
Degree Days  
Heating Degree Days 26 40  
Month to date heating degree days 468 442  
Since 1 July heating degree days 3611 3358  
Cooling Degree Days 0 0  
Month to date cooling degree days 0 0  
Year to date cooling degree days 0 0  
Moisture  
Dew Point 26 °F    
Average Humidity 57    
Maximum Humidity 75    
Minimum Humidity 38    
Precipitation  
Precipitation 0.00 in 0.01 in 0.18 in (1916)
Month to date precipitation 0.07 0.12  
Year to date precipitation 0.07 0.12  
Snow  
Snow 0.00 in 0.10 in 3.30 in (2005)
Month to date snowfall 0.7 1.6  
Since 1 July snowfall 34.1 14.8  
Snow Depth 0.00 in    
Sea Level Pressure  
Sea Level Pressure 29.63 in    
Wind  
Wind Speed 11 mph (WSW)    
Max Wind Speed 26 mph    
Max Gust Speed 35 mph    
Visibility 10 miles    
Events      
T = Trace of Precipitation, MM = Missing Value Source: NWS Daily Summary

Daily Weather History Graph

Daily Weather History Graph

Search for Another Location

Airport or City:

Trip Planner

Search our weather history database for the weather conditions in past years. The results will help you decide how hot, cold, wet, or windy it might be!

Date:

Astronomy

Jan. 11, 2014 Rise Set
Actual Time 7:25 AM MST 4:35 PM MST
Civil Twilight 6:53 AM MST 5:07 PM MST
Nautical Twilight 6:17 AM MST 5:43 PM MST
Astronomical Twilight 5:42 AM MST 6:18 PM MST
Moon 1:22 PM MST (1/11) 3:30 AM MST (1/11)
Length of Visible Light 10h 14m
Length of Day
9h 09m
Waxing Gibbous, 83% of the Moon is Illuminated
Jan 11
Waxing Gibbous
Jan 15
Full
Jan 23
Last Quarter
Jan 30
New
Feb 6
First Quarter

Hourly Weather History & Observations

Time (MST) Temp. Windchill Dew Point Humidity Pressure Visibility Wind Dir Wind Speed Gust Speed Precip Events Conditions
12:52 AM 37.0 °F 26.4 °F 25.0 °F 62% 29.75 in 10.0 mi NW 20.7 mph 26.5 mph N/A   Mostly Cloudy
1:52 AM 34.0 °F 24.6 °F 25.0 °F 70% 29.79 in 10.0 mi NW 13.8 mph - N/A   Partly Cloudy
2:52 AM 34.0 °F 24.6 °F 25.0 °F 70% 29.81 in 10.0 mi NW 13.8 mph - N/A   Clear
3:52 AM 34.0 °F 28.0 °F 25.0 °F 70% 29.83 in 10.0 mi NW 6.9 mph - N/A   Overcast
4:52 AM 33.1 °F - 23.0 °F 66% 29.86 in 10.0 mi Calm Calm - N/A   Overcast
5:52 AM 28.9 °F 22.8 °F 21.0 °F 72% 29.86 in 10.0 mi WNW 5.8 mph - N/A   Clear
6:52 AM 26.1 °F - 19.0 °F 75% 29.88 in 10.0 mi Calm Calm - N/A   Clear
7:52 AM 28.0 °F 24.2 °F 19.9 °F 72% 29.87 in 10.0 mi WSW 3.5 mph - N/A   Clear
8:52 AM 35.1 °F 32.2 °F 23.0 °F 61% 29.86 in 10.0 mi WSW 3.5 mph - N/A   Clear
9:52 AM 41.0 °F 35.8 °F 24.1 °F 51% 29.84 in 10.0 mi SSW 8.1 mph - N/A   Clear
10:52 AM 45.0 °F 43.5 °F 23.0 °F 42% 29.77 in 10.0 mi South 3.5 mph - N/A   Clear
11:52 AM 46.9 °F - 24.1 °F 41% 29.69 in 10.0 mi South 11.5 mph - N/A   Clear
12:52 PM 46.9 °F - 26.1 °F 44% 29.63 in 10.0 mi South 13.8 mph - N/A   Clear
1:52 PM 46.9 °F - 28.0 °F 48% 29.57 in 10.0 mi SE 12.7 mph - N/A   Clear
2:52 PM 51.1 °F - 28.9 °F 43% 29.53 in 10.0 mi SW 11.5 mph - N/A   Clear
3:52 PM 48.9 °F - 30.0 °F 48% 29.52 in 10.0 mi South 5.8 mph - N/A   Clear
4:52 PM 51.1 °F - 30.0 °F 44% 29.49 in 10.0 mi WSW 20.7 mph - N/A   Clear
5:52 PM 51.1 °F - 30.0 °F 44% 29.46 in 10.0 mi West 18.4 mph 26.5 mph N/A   Clear
6:52 PM 46.9 °F - 30.9 °F 54% 29.44 in 10.0 mi South 11.5 mph - N/A   Clear
7:52 PM 54.0 °F - 30.0 °F 40% 29.39 in 10.0 mi WSW 19.6 mph 27.6 mph N/A   Clear
8:52 PM 52.0 °F - 28.9 °F 41% 29.37 in 10.0 mi WSW 23.0 mph 32.2 mph N/A   Clear
9:52 PM 52.0 °F - 28.9 °F 41% 29.34 in 10.0 mi Variable 4.6 mph - N/A   Clear
10:52 PM 53.1 °F - 28.9 °F 40% 29.32 in 10.0 mi West 17.3 mph 27.6 mph N/A   Mostly Cloudy
11:52 PM 53.1 °F - 28.9 °F 40% 29.31 in 10.0 mi West 24.2 mph 33.4 mph N/A   Clear